Zurück zum Katalog

COSMOS 2251 DEB

AktivLEO
NORAD 34553·DEBRIS·🇷🇺 Russia

Gestartet Jun 16, 1993 von Plesetsk Cosmodrome

Loading…

Nächste Überflüge (nächste 24 Stunden)

TLE

AktuellSource: Space-Track

Epoche: Sep 14, 2026, 11:49 UTC

1 34553U 93036UP  26257.49299326  .00003195  00000-0  66756-3 0  9998
2 34553  74.0264  26.0439 0018792  35.8455  83.1996 14.60169956921180

Verfolge COSMOS 2251 DEB in Echtzeit mit AllMySat

Download on the App Store